Location: Gull Harbor
(47.1000°N, 122.9000°W)
Time: 22:17:58
(UTC-07:00)

Tiangong - Pass Details

Date: 23 April 2024
Orbit: 372 x 376 km, 41.5° (Epoch: 19 May)

Event Time Altitude Azimuth Distance (km) Brightness Sun altitude
Rises 21:36:59 0° 262° (W) 2,260 2.5 -13.4°
Reaches altitude 10° 21:39:19 10° 248° (WSW) 1,400 1.1 -13.7°
Maximum altitude 21:41:54 23° 192° (SSW) 853 -0.6 -14.1°
Enters shadow 21:42:31 22° 173° (S) 892 -0.7 -14.2°
